Regional Weather Roundup
Issued by NWS Cleveland, OH

Home | Current Version | Previous Version | Graphics & Text | Print | Product List | Glossary On
Versions: 1 2 3 4 5 6 7 8 9 10 11 12 13 14 15 16 17 18 19 20 21 22 23 24 25 26 27 28 29 30 31 32 33 34 35 36 37 38 39 40 41 42 43 44 45 46 47 48 49 50
000
ASUS41 KCLE 200612
RWRCLE
OHIO REGIONAL WEATHER ROUNDUP
NATIONAL WEATHER SERVICE WILMINGTON, OH
200 AM EDT SUN AUG 20 2017

NOTE: "FAIR" INDICATES FEW OR NO CLOUDS BELOW 12,000 FEET WITH NO
SIGNIFICANT WEATHER AND/OR OBSTRUCTIONS TO VISIBILITY.

OHZ001>008-015>018-024>027-034-035-043-044-200700-
   NORTHWEST OHIO

CITY           SKY/WX    TMP DP  RH WIND       PRES   REMARKS
DEFIANCE       FAIR      61  58  90 CALM      30.03R FOG
FINDLAY        FAIR      64  59  83 CALM      30.03R
TOLEDO EXPRESS FAIR      60  60 100 CALM      30.02S
TOLEDO EXEC    FAIR      65  62  90 CALM      30.03S
LIMA           FAIR      62  60  93 S5        30.04S
$$

OHZ009>014-019>023-028>033-038-089-200700-
   NORTHEAST OHIO

CITY           SKY/WX    TMP DP  RH WIND       PRES   REMARKS
CLE-HOPKINS    FAIR      64  61  90 SW3       30.06R
CLE-LAKEFRONT  FAIR      67  61  81 SE8       30.03R
CUY CO. ARPT   NOT AVBL
LORAIN-ELYRIA    N/A    N/A N/A N/A MISG      30.05S
ASHTABULA      FAIR      58  57  97 CALM      30.06R
AKRON-CANTON   FAIR      63  57  81 CALM      30.07R
WOOSTER        FAIR      57  57 100 CALM      30.07R
MANSFIELD      FAIR      62  60  93 CALM      30.07R
YOUNGSTOWN     FAIR      59  58  96 CALM      30.06R
$$

OHZ042-051>053-060>062-070>072-077>081-200700-
  SOUTHWEST OHIO

CITY           SKY/WX    TMP DP  RH WIND       PRES   REMARKS
CINC-COVINGTON CLOUDY    73  71  93 CALM      30.03S
CINC-LUNKEN    CLOUDY    70  69  97 NE3       30.02F
HAMILTON       CLOUDY    70  68  93 NE3       30.03S
DAYTON         FAIR      68  60  75 CALM      30.06R
WRIGHT-PAT AFB CLEAR     65  64  97 N3        30.04R
DAYTON GENERAL FAIR      68  64  87 NE6       30.04R
WILMINGTON     FAIR      65  65 100 CALM      30.05R
$$

OHZ036-037-039>041-045>050-054>059-063>069-073>076-082>088-200700-
  CENTRAL AND SOUTHEAST OHIO

CITY           SKY/WX    TMP DP  RH WIND       PRES   REMARKS
COLUMBUS       FAIR      66  65  96 CALM      30.04S
OSU AIRPORT    FAIR      65  63  93 CALM      30.05S
BOLTON FIELD   FAIR      62  62  98 CALM      30.05R
RICKENBACK AFB FAIR      64  64 100 CALM      30.04R
NEWARK         FOG       61  60  97 CALM      30.05S VSB 1/4
MARION         FAIR      60  57  89 S5        30.06R
LANCASTER      FOG       62  62 100 CALM      30.05S VSB 1/4
ZANESVILLE     FOG       61  60  97 CALM      30.06R VSB 1
NEW PHILLY     FOG       64  64 100 CALM      30.07R VSB<1/4
$$



USA.gov is the U.S. government's official web portal to all federal, state and local government web resources and services.